Torna al catalogo

STARLINK-36638

AttivoComunicazioniSSO
NORAD 67594·PAYLOAD·🇺🇸 United States

Lanciato Jan 29, 2026 da Vandenberg Space Force Base

Loading…

Prossimi Passaggi (prossime 24 ore)

TLE

AggiornatoSource: CelesTrak SupGP

Epoca: Sep 14, 2026, 23:11 UTC

1 67594C 26018F   26257.96645833  .00019270  00000+0  59820-3 0  2576
2 67594  97.2851 321.4262 0000562  90.2706  40.8687 15.33429354    15

Traccia STARLINK-36638 in tempo reale con AllMySat

Download on the App Store